Location: Casteau
(50.5142°N, 4.0161°E)
Time: 19:08:35
(UTC+00:00)

Tiros 1 - Pass Details

Date: 31 July 2021
Orbit: 630 x 663 km, 48.4° (Epoch: 28 September)

Event Time Altitude Azimuth Distance (km) Brightness Sun altitude
Rises 21:00:30 0° 268° (W) 2,974 11.2 -12.0°
Reaches altitude 10° 21:02:51 10° 266° (W) 2,058 10.2 -12.2°
Maximum altitude 21:07:34 69° 184° (S) 695 7.1 -12.7°
Enters shadow 21:11:48 13° 102° (ESE) 1,871 9.1 -13.1°
Drops below altitude 10° 21:12:14 10° 101° (E) 2,035 - -13.1°
Sets 21:14:33 0° 99° (E) 2,938 - -13.4°
